Jerome, ID

11:46 PM MST on December 05, 2016 (GMT -0700)
Jerome County

Weather History for KJER - July, 2013

Change the Weather History Date:

Saturday, July 20, 2013

  Actual Average Record
Temperature  
Mean Temperature 79 °F 72 °F  
Max Temperature 97 °F 88 °F 106 °F (1931)
Min Temperature 61 °F 57 °F 43 °F (1932)
Degree Days  
Heating Degree Days 0 0  
Month to date heating degree days 0 10  
Since 1 June heating degree days 78 117  
Since 1 July heating degree days 0 10  
Cooling Degree Days 14 7  
Month to date cooling degree days 250 119  
Year to date cooling degree days 395 200  
Since 1 June cooling degree days 380 187  
Growing Degree Days 30 (Base 50)    
Moisture  
Dew Point 37 °F    
Average Humidity 23    
Maximum Humidity 34    
Minimum Humidity 12    
Precipitation  
Precipitation 0.00 in 0.01 in 0.06 in (1972)
Month to date precipitation T 0.14  
Year to date precipitation 2.52 6.51  
Sea Level Pressure  
Sea Level Pressure 29.82 in    
Wind  
Wind Speed 5 mph (SW)    
Max Wind Speed 12 mph    
Max Gust Speed 15 mph    
Visibility 10 miles    
Events      
T = Trace of Precipitation, MM = Missing Value Source: NWS Daily Summary

Daily Weather History Graph

Daily Weather History Graph

Search for Another Location

Airport or City:

Trip Planner

Search our weather history database for the weather conditions in past years. The results will help you decide how hot, cold, wet, or windy it might be!

Date:

Astronomy

Jul. 20, 2013 Rise Set
Actual Time 6:17 AM MDT 9:10 PM MDT
Civil Twilight 5:44 AM MDT 9:43 PM MDT
Nautical Twilight 5:02 AM MDT 10:25 PM MDT
Astronomical Twilight 4:13 AM MDT 11:14 PM MDT
Moon 7:17 PM MDT (7/20) 4:02 AM MDT (7/20)
Length of Visible Light 15h 58m
Length of Day
14h 52m
Waxing Gibbous, 94% of the Moon is Illuminated
Jul 20
Waxing Gibbous
Jul 22
Full
Jul 29
Last Quarter
Aug 6
New
Aug 14
First Quarter

Hourly Weather History & Observations

Time (MDT) Temp. Dew Point Humidity Pressure Visibility Wind Dir Wind Speed Gust Speed Precip Events Conditions
12:53 AM 77.0 °F 28.0 °F 17% 29.83 in 10.0 mi WNW 3.5 mph - N/A   Clear
1:53 AM 72.0 °F 27.0 °F 19% 29.83 in 10.0 mi Calm Calm - N/A   Clear
2:53 AM 70.0 °F 33.1 °F 26% 29.83 in 10.0 mi Calm Calm - N/A   Clear
3:53 AM 66.0 °F 33.1 °F 29% 29.85 in 10.0 mi SSE 3.5 mph - N/A   Clear
4:53 AM 66.9 °F 30.9 °F 26% 29.85 in 10.0 mi South 3.5 mph - N/A   Clear
5:53 AM 66.9 °F 32.0 °F 27% 29.86 in 10.0 mi South 4.6 mph - N/A   Clear
6:53 AM 64.0 °F 34.0 °F 33% 29.88 in 10.0 mi SSE 5.8 mph - N/A   Clear
7:53 AM 66.9 °F 37.0 °F 33% 29.90 in 10.0 mi SSE 5.8 mph - N/A   Clear
8:53 AM 71.1 °F 39.0 °F 31% 29.91 in 10.0 mi SSE 4.6 mph - N/A   Clear
9:53 AM 75.9 °F 37.9 °F 25% 29.91 in 10.0 mi SSW 6.9 mph - N/A   Clear
10:53 AM 78.1 °F 39.9 °F 25% 29.89 in 10.0 mi South 4.6 mph - N/A   Clear
11:53 AM 82.0 °F 39.0 °F 22% 29.88 in 10.0 mi WSW 4.6 mph - N/A   Clear
12:53 PM 86.0 °F 39.9 °F 20% 29.86 in 10.0 mi SSW 6.9 mph - N/A   Clear
1:53 PM 89.1 °F 43.0 °F 20% 29.84 in 10.0 mi WSW 6.9 mph - N/A   Clear
2:53 PM 91.0 °F 48.0 °F 23% 29.82 in 10.0 mi WNW 4.6 mph - N/A   Clear
3:53 PM 93.9 °F 45.0 °F 18% 29.80 in 10.0 mi WNW 4.6 mph - N/A   Clear
4:53 PM 93.9 °F 35.1 °F 13% 29.78 in 10.0 mi SW 5.8 mph - N/A   Clear
5:53 PM 95.0 °F 36.0 °F 13% 29.75 in 10.0 mi SW 6.9 mph - N/A   Clear
6:53 PM 95.0 °F 36.0 °F 13% 29.73 in 10.0 mi WSW 5.8 mph - N/A   Clear
7:53 PM 91.0 °F 42.1 °F 18% 29.73 in 10.0 mi WSW 8.1 mph - N/A   Clear
8:53 PM 84.9 °F 37.9 °F 19% 29.74 in 10.0 mi WSW 9.2 mph - N/A   Clear
9:53 PM 75.9 °F 39.9 °F 27% 29.76 in 10.0 mi West 4.6 mph - N/A   Clear
10:53 PM 77.0 °F 34.0 °F 21% 29.76 in 10.0 mi SW 4.6 mph - N/A   Clear
11:53 PM 77.0 °F 33.1 °F 20% 29.75 in 10.0 mi SSW 8.1 mph - N/A   Clear